GW0714 Weather Reports


time (UTC)temp
F
wind
direction
speed
knots
gust
knots
rain 1hr
in
rain 24hr
in
rain mn
in
humidity
%
barometer
mb
20260904083530 58 316 2.6 7.0 0.03 0.06 0.04 95 1012.2
20260904083127 58 321 2.6 7.0 0.02 0.05 0.03 95 1012.2
20260904082530 58 335 1.7 5.2 0.02 0.05 0.03 95 1012.2
20260904082028 58 333 0.9 5.2 0.02 0.05 0.03 95 1012.3
20260904081547 58 336 2.6 5.2 0.03 0.05 0.03 95 1012.3
20260904081027 58 340 2.6 5.2 0.02 0.04 0.02 95 1012.3
20260904080531 58 10 1.7 7.0 0.02 0.04 0.02 95 1012.3
20260904080045 58 352 2.6 7.0 0.02 0.04 0.02 95 1012.3
20260904075529 58 345 1.7 5.2 0.02 0.04 0.02 95 1012.3
20260904075032 58 350 1.7 5.2 0.02 0.04 0.02 95 1012.4
20260904074551 59 333 1.7 5.2 0.01 0.03 0.01 95 1012.4
20260904074028 59 18 1.7 4.3 0.01 0.03 0.01 95 1012.4
20260904073530 59 23 1.7 5.2 0.01 0.03 0.01 95 1012.4
20260904073057 59 352 1.7 5.2 0.01 0.03 0.01 95 1012.4
20260904072529 59 322 1.7 7.8 0.01 0.03 0.01 95 1012.5
20260904072030 59 342 1.7 7.8 0.01 0.03 0.01 95 1012.5
20260904071611 59 5 3.5 7.8 0.00 0.02 0.00 95 1012.4
20260904071029 59 340 4.3 7.8 0.00 0.02 0.00 94 1012.3
20260904070532 59 333 3.5 7.8 0.00 0.02 0.00 94 1012.4
20260904070109 59 346 3.5 7.8 0.01 0.02 0.00 94 1012.4
20260904065529 59 344 2.6 7.0 0.02 0.02 0.02 94 1012.4
20260904065034 59 26 3.5 7.0 0.02 0.02 0.02 94 1012.4
20260904064549 59 352 1.7 5.2 0.02 0.02 0.02 94 1012.3
20260904064029 59 17 1.7 5.2 0.02 0.02 0.02 94 1012.3
20260904063533 59 352 1.7 5.2 0.02 0.02 0.02 94 1012.2
20260904063100 59 315 0.9 7.8 0.02 0.02 0.02 94 1012.2
20260904062529 59 332 3.5 7.8 0.02 0.02 0.02 93 1012.2
20260904062029 59 25 0.9 4.3 0.02 0.02 0.02 93 1012.3
20260904061549 59 5 2.6 4.3 0.02 0.02 0.02 93 1012.3
20260904061029 59 348 2.6 4.3 0.02 0.02 0.02 93 1012.3
20260904060530 59 0 0.9 4.3 0.01 0.01 0.01 92 1012.2
20260904060045 59 319 1.7 8.7 0.01 0.01 0.01 92 1012.4
20260904055529 60 24 2.6 8.7 0.00 0.00 0.00 91 1012.3
20260904055029 60 352 3.5 8.7 0.00 0.00 0.00 90 1012.3
20260904054553 60 5 2.6 7.0 0.00 0.00 0.00 89 1012.3
20260904054030 60 350 2.6 7.0 0.00 0.00 0.00 89 1012.2
20260904053529 60 342 2.6 7.0 0.00 0.00 0.00 89 1012.2
20260904053101 60 325 2.6 7.0 0.00 0.00 0.00 89 1012.4
20260904052529 60 341 2.6 5.2 0.00 0.00 0.00 89 1012.3
20260904052032 60 335 1.7 5.2 0.00 0.00 0.00 89 1012.3
20260904051549 60 336 0.9 4.3 0.00 0.00 0.00 90 1012.5
20260904051031 60 0 0.9 4.3 0.00 0.00 0.00 90 1012.6
20260904050531 60 0 0.0 5.2 0.00 0.00 0.00 90 1012.6
20260904050043 60 0 1.7 5.2 0.00 0.00 0.00 90 1012.7
20260904045532 60 335 0.9 4.3 0.00 0.00 0.00 90 1012.7
20260904045032 60 328 0.9 4.3 0.00 0.00 0.00 90 1012.7
20260904044549 60 322 1.7 4.3 0.00 0.00 0.00 90 1012.6
20260904044031 60 0 0.9 3.5 0.00 0.00 0.00 90 1012.6
20260904043530 60 327 0.9 3.5 0.00 0.00 0.00 90 1012.5
20260904043056 60 321 0.0 2.6 0.00 0.00 0.00 91 1012.5
20260904042534 60 325 0.0 1.7 0.00 0.00 0.00 91 1012.6
20260904042031 60 0 0.0 0.9 0.00 0.00 0.00 91 1012.7
20260904041544 60 0 0.0 0.9 0.00 0.00 0.00 91 1012.7
20260904041034 60 0 0.0 0.9 0.00 0.00 0.00 91 1012.7
20260904040530 60 0 0.0 0.9 0.00 0.00 0.00 91 1012.6
20260904040104 60 0 0.0 0.0 0.00 0.00 0.00 91 1012.5
20260904035534 60 0 0.0 0.0 0.00 0.00 0.00 91 1012.6
20260904035031 60 0 0.0 0.0 0.00 0.00 0.00 91 1012.6
20260904034550 60 0 0.0 0.0 0.00 0.00 0.00 90 1012.6
20260904034031 60 0 0.0 0.0 0.00 0.00 0.00 90 1012.6
20260904033532 60 0 0.0 0.9 0.00 0.00 0.00 89 1012.5
20260904033046 60 0 0.0 2.6 0.00 0.00 0.00 89 1012.5
20260904032531 61 0 0.0 2.6 0.00 0.00 0.00 88 1012.5
20260904032031 61 0 0.0 0.0 0.00 0.00 0.00 87 1012.6
20260904031553 61 0 0.0 0.0 0.00 0.00 0.00 86 1012.6
20260904031030 61 0 0.0 0.9 0.00 0.00 0.00 86 1012.6
20260904030534 62 0 0.0 1.7 0.00 0.00 0.00 85 1012.6
20260904030053 62 0 0.0 2.6 0.00 0.00 0.00 84 1012.6
20260904025530 62 0 0.0 7.0 0.00 0.00 0.00 84 1012.6
20260904025031 62 86 0.9 7.0 0.00 0.00 0.00 83 1012.6
20260904024549 62 0 0.0 1.7 0.00 0.00 0.00 83 1012.7
20260904024029 62 0 0.0 1.7 0.00 0.00 0.00 83 1012.6
20260904023530 62 0 0.9 2.6 0.00 0.00 0.00 82 1012.7
20260904023046 62 0 0.0 3.5 0.00 0.00 0.00 82 1012.6
20260904022531 62 144 0.9 3.5 0.00 0.00 0.00 81 1012.6
20260904022031 63 0 0.0 5.2 0.00 0.00 0.00 81 1012.6
20260904021550 63 125 0.9 5.2 0.00 0.00 0.00 80 1012.6
20260904021032 63 144 0.9 3.5 0.00 0.00 0.00 79 1012.5
20260904020532 63 0 0.0 4.3 0.00 0.00 0.00 78 1012.5
20260904020050 63 0 0.0 4.3 0.00 0.00 0.00 77 1012.5
20260904015531 63 38 1.7 5.2 0.00 0.00 0.00 77 1012.6
20260904015031 64 51 0.9 5.2 0.00 0.00 0.00 76 1012.6
20260904014545 64 36 0.9 3.5 0.00 0.00 0.00 76 1012.7
20260904014031 64 82 0.9 4.3 0.00 0.00 0.00 75 1012.7
20260904013532 64 46 0.9 7.8 0.00 0.00 0.00 75 1012.8
20260904013050 64 326 0.9 7.8 0.00 0.00 0.00 76 1012.7
20260904012531 64 309 2.6 7.8 0.00 0.00 0.00 76 1012.7
20260904012032 64 351 0.9 7.0 0.00 0.00 0.00 75 1012.8
20260904011550 64 45 0.9 7.8 0.00 0.00 0.00 75 1012.7
20260904011031 64 346 2.6 7.8 0.00 0.00 0.00 76 1012.7
20260904010531 64 11 1.7 7.0 0.00 0.00 0.00 76 1012.9
20260904010046 64 317 0.0 3.5 0.00 0.00 0.00 75 1012.8
20260904005529 64 0 0.9 7.0 0.00 0.00 0.00 75 1013.0
20260904005030 65 5 1.7 7.8 0.00 0.00 0.00 74 1013.1
20260904004553 65 53 0.9 7.8 0.00 0.00 0.00 74 1013.0
20260904004031 65 336 0.9 7.0 0.00 0.00 0.00 74 1013.0
20260904003529 65 25 0.0 7.8 0.00 0.00 0.00 74 1013.0
20260904003049 65 13 2.6 8.7 0.00 0.00 0.00 74 1013.0
20260904002531 65 352 2.6 8.7 0.00 0.00 0.00 74 1012.9
20260904002032 65 352 1.7 5.2 0.00 0.00 0.00 73 1012.8
20260904001550 65 38 0.9 4.3 0.00 0.00 0.00 73 1012.9
20260904001031 65 0 0.0 5.2 0.00 0.00 0.00 73 1013.0
20260904000531 65 301 0.9 6.1 0.00 0.00 0.00 73 1013.1
20260903235535 65 325 1.7 6.1 0.00 0.00 0.00 73 1013.1
20260903235034 65 352 0.9 4.3 0.00 0.00 0.00 72 1013.1
20260903234552 65 325 0.9 6.1 0.00 0.00 0.00 72 1013.1
20260903234031 65 340 1.7 6.1 0.00 0.00 0.00 72 1013.2
20260903233537 65 21 0.9 7.8 0.00 0.00 0.00 72 1013.2
20260903233050 65 0 2.6 7.8 0.00 0.00 0.00 72 1013.2
20260903232532 65 327 3.5 7.0 0.00 0.00 0.00 72 1013.2
20260903232031 65 360 1.7 7.0 0.00 0.00 0.00 72 1013.2
20260903231548 65 42 2.6 7.0 0.00 0.00 0.00 72 1013.2
20260903231031 65 329 1.7 6.1 0.00 0.00 0.00 72 1013.2
20260903230541 65 343 1.7 7.8 0.00 0.00 0.00 72 1013.3
20260903230055 65 339 3.5 8.7 0.00 0.00 0.00 72 1013.4
20260903225529 65 19 3.5 8.7 0.00 0.00 0.00 72 1013.5
20260903225028 65 348 3.5 8.7 0.00 0.00 0.00 71 1013.5
20260903224550 65 360 1.7 4.3 0.00 0.00 0.00 72 1013.5
20260903224029 65 18 1.7 7.0 0.00 0.00 0.00 72 1013.6
20260903223528 65 19 2.6 7.0 0.00 0.00 0.00 71 1013.6
20260903223046 65 335 2.6 6.1 0.00 0.00 0.00 72 1013.6
20260903222529 65 309 1.7 7.0 0.00 0.00 0.00 72 1013.7
20260903222031 65 32 2.6 7.8 0.00 0.00 0.00 72 1013.7
20260903221550 65 330 1.7 7.8 0.00 0.00 0.00 72 1013.9
20260903221025 65 352 2.6 7.8 0.00 0.00 0.00 72 1014.1
20260903220528 65 349 1.7 8.7 0.00 0.00 0.00 72 1014.1
20260903220053 65 342 2.6 8.7 0.00 0.00 0.00 71 1014.1
20260903215530 66 329 0.9 8.7 0.00 0.00 0.00 71 1014.1
20260903215030 66 45 2.6 8.7 0.00 0.00 0.00 70 1014.2
20260903214605 66 56 1.7 7.0 0.00 0.00 0.00 70 1014.2
20260903214031 66 80 0.9 7.8 0.00 0.00 0.00 70 1014.3
20260903213529 66 338 1.7 9.6 0.00 0.00 0.00 69 1014.2
20260903213048 66 84 2.6 9.6 0.00 0.00 0.00 69 1014.3
20260903212535 66 58 1.7 8.7 0.00 0.00 0.00 69 1014.2
20260903212028 66 5 3.5 8.7 0.00 0.00 0.00 69 1014.3
20260903211543 66 22 1.7 7.8 0.00 0.00 0.00 68 1014.3
20260903211026 66 311 2.6 8.7 0.00 0.00 0.00 68 1014.4
20260903210526 66 340 3.5 8.7 0.00 0.00 0.00 68 1014.3
20260903210052 66 13 0.9 7.0 0.00 0.00 0.00 68 1014.4
20260903205528 67 0 2.6 7.0 0.00 0.00 0.00 68 1014.5
20260903205029 67 340 1.7 4.3 0.00 0.00 0.00 68 1014.5
20260903204551 66 0 1.7 7.0 0.00 0.00 0.00 68 1014.5
20260903204026 66 43 1.7 7.0 0.00 0.00 0.00 67 1014.4
20260903203533 66 0 2.6 8.7 0.00 0.00 0.00 69 1014.4
20260903203044 66 360 3.5 8.7 0.00 0.00 0.00 68 1014.5
20260903202534 66 24 3.5 8.7 0.00 0.00 0.00 67 1014.5
20260903202029 66 9 2.6 7.0 0.00 0.00 0.00 68 1014.5
20260903201552 65 333 1.7 6.1 0.00 0.00 0.00 68 1014.5
20260903201032 65 30 2.6 8.7 0.00 0.00 0.00 69 1014.6
20260903200534 65 36 3.5 10.4 0.00 0.00 0.00 68 1014.6
20260903200057 65 346 6.1 10.4 0.00 0.00 0.00 66 1014.6
20260903195531 66 347 6.1 11.3 0.00 0.00 0.00 65 1014.7
20260903195031 66 28 5.2 11.3 0.00 0.00 0.00 63 1014.8
20260903194554 67 346 4.3 9.6 0.00 0.00 0.00 64 1014.8
20260903194031 67 327 4.3 10.4 0.00 0.00 0.00 65 1014.8
20260903193531 67 349 4.3 10.4 0.00 0.00 0.00 63 1014.9
20260903193046 67 13 5.2 10.4 0.00 0.00 0.00 63 1014.9
20260903192535 67 11 3.5 8.7 0.00 0.00 0.00 64 1014.9
20260903192031 67 328 3.5 10.4 0.00 0.00 0.00 63 1014.9
20260903191548 66 57 6.1 10.4 0.00 0.00 0.00 64 1015.0
20260903191031 66 5 2.6 7.8 0.00 0.00 0.00 64 1015.0
20260903190529 66 305 4.3 7.8 0.00 0.00 0.00 65 1015.0
20260903190051 65 317 3.5 9.6 0.00 0.00 0.00 65 1015.1
20260903185530 65 0 3.5 9.6 0.00 0.00 0.00 65 1015.1
20260903185032 65 24 1.7 8.7 0.00 0.00 0.00 64 1015.3
20260903184549 65 24 3.5 8.7 0.00 0.00 0.00 64 1015.3
20260903184029 65 5 2.6 7.0 0.00 0.00 0.00 66 1015.3
20260903183533 65 348 3.5 7.0 0.00 0.00 0.00 65 1015.3
20260903183052 65 326 2.6 7.0 0.00 0.00 0.00 64 1015.3
20260903182531 65 26 2.6 7.0 0.00 0.00 0.00 64 1015.3
20260903182031 66 333 3.5 7.0 0.00 0.00 0.00 64 1015.3
20260903181548 66 17 1.7 8.7 0.00 0.00 0.00 63 1015.4
20260903181031 66 13 1.7 8.7 0.00 0.00 0.00 64 1015.3
20260903180538 66 340 2.6 7.0 0.00 0.00 0.00 63 1015.3
20260903180056 66 18 3.5 7.0 0.00 0.00 0.00 64 1015.4
20260903175529 65 338 2.6 7.0 0.00 0.00 0.00 64 1015.3
20260903175030 65 360 1.7 6.1 0.00 0.00 0.00 66 1015.3
20260903174551 64 0 1.7 7.0 0.00 0.00 0.00 65 1015.3
20260903174031 64 0 1.7 7.0 0.00 0.00 0.00 65 1015.3
20260903173531 64 352 3.5 7.0 0.00 0.00 0.00 64 1015.3
20260903173049 64 36 0.0 4.3 0.00 0.00 0.00 65 1015.3
20260903172533 63 0 0.9 7.0 0.00 0.00 0.00 67 1015.2
20260903172031 62 5 0.9 7.0 0.00 0.00 0.00 66 1015.2
20260903171547 62 349 0.9 7.0 0.00 0.00 0.00 66 1015.2
20260903171033 61 318 0.0 7.0 0.00 0.00 0.00 66 1015.3
20260903170530 61 329 0.0 4.3 0.00 0.00 0.00 67 1015.4
20260903165532 60 325 0.0 2.6 0.00 0.00 0.00 68 1015.5
20260903165032 60 0 0.0 3.5 0.00 0.00 0.00 70 1015.5
20260903164550 60 332 0.0 3.5 0.00 0.00 0.00 70 1015.6
20260903164031 59 296 0.0 7.0 0.00 0.00 0.00 71 1015.5
20260903163530 59 0 1.7 7.0 0.00 0.00 0.00 71 1015.3
20260903163049 59 5 0.9 4.3 0.00 0.00 0.00 72 1015.4
20260903162530 59 325 0.0 3.5 0.00 0.00 0.00 74 1015.5
20260903162032 59 0 0.9 2.6 0.00 0.00 0.00 74 1015.5
20260903161546 59 0 0.0 2.6 0.00 0.00 0.00 74 1015.6
20260903161031 58 0 0.0 2.6 0.00 0.00 0.00 75 1015.6
20260903160530 58 0 0.0 2.6 0.00 0.00 0.00 75 1015.7
20260903160054 58 337 0.0 3.5 0.00 0.00 0.00 75 1015.7
20260903155530 58 0 0.9 3.5 0.00 0.00 0.00 75 1015.6
20260903155030 58 0 0.0 3.5 0.00 0.00 0.00 75 1015.8
20260903154557 58 0 0.0 2.6 0.00 0.00 0.00 76 1015.8
20260903154031 57 0 0.0 2.6 0.00 0.00 0.00 76 1015.8
20260903153532 57 0 0.0 2.6 0.00 0.00 0.00 76 1015.7
20260903153106 57 279 0.0 3.5 0.00 0.00 0.00 77 1015.7
20260903152528 57 269 0.9 3.5 0.00 0.00 0.00 77 1015.7
20260903152028 57 327 0.9 5.2 0.00 0.00 0.00 77 1015.7
20260903151549 56 291 0.0 7.8 0.00 0.00 0.00 78 1015.5
20260903151030 56 295 0.0 7.8 0.00 0.00 0.00 78 1015.5
20260903150530 56 286 1.7 8.7 0.00 0.00 0.00 78 1015.5
20260903150101 56 333 0.9 8.7 0.00 0.00 0.00 78 1015.4
20260903145528 56 314 2.6 8.7 0.00 0.00 0.00 78 1015.4
20260903145031 56 28 1.7 7.8 0.00 0.00 0.00 78 1015.5
20260903144545 56 331 1.7 7.8 0.00 0.00 0.00 79 1015.5
20260903144033 56 10 2.6 7.8 0.00 0.00 0.00 78 1015.4
20260903143533 56 0 1.7 7.8 0.00 0.00 0.00 79 1015.4
20260903143105 56 332 1.7 7.0 0.00 0.00 0.00 79 1015.4
20260903142532 56 352 0.9 3.5 0.00 0.00 0.00 79 1015.4
20260903142032 56 336 0.0 1.7 0.00 0.00 0.00 79 1015.4
20260903141549 56 0 0.0 1.7 0.00 0.00 0.00 79 1015.3
20260903141029 56 0 0.0 1.7 0.00 0.00 0.00 79 1015.3
20260903140527 56 0 0.0 1.7 0.00 0.00 0.00 79 1015.3
20260903140052 56 0 0.0 2.6 0.00 0.00 0.00 79 1015.3
20260903135530 56 0 0.0 2.6 0.00 0.00 0.00 78 1015.3
20260903135029 56 339 0.0 3.5 0.00 0.00 0.00 78 1015.2
20260903134549 56 278 0.0 3.5 0.00 0.00 0.00 78 1015.2
20260903134030 56 333 0.9 3.5 0.00 0.00 0.00 78 1015.2
20260903133527 56 0 0.0 4.3 0.00 0.00 0.00 78 1015.2
20260903133046 56 360 1.7 4.3 0.00 0.00 0.00 78 1015.2
20260903132529 56 5 0.9 4.3 0.00 0.00 0.00 77 1015.2
20260903132029 56 327 1.7 4.3 0.00 0.00 0.00 77 1015.2
20260903131554 56 33 0.9 3.5 0.00 0.00 0.00 77 1015.2
20260903131035 56 0 0.0 2.6 0.00 0.00 0.00 76 1015.1
20260903130533 56 348 0.0 5.2 0.00 0.00 0.00 76 1015.1
20260903130051 56 0 0.0 5.2 0.00 0.00 0.00 76 1015.0
20260903125530 57 0 0.9 5.2 0.00 0.00 0.00 76 1015.1
20260903125031 57 0 0.0 4.3 0.00 0.00 0.00 75 1015.0
20260903124549 57 0 0.0 7.0 0.00 0.00 0.00 75 1015.2
20260903124033 57 0 0.9 7.0 0.00 0.00 0.00 75 1015.2
20260903123529 57 0 0.9 5.2 0.00 0.00 0.00 74 1015.2
20260903123053 57 323 1.7 3.5 0.00 0.00 0.00 74 1015.2
20260903122532 57 300 0.9 5.2 0.00 0.00 0.00 74 1015.2
20260903122030 57 296 0.0 5.2 0.00 0.00 0.00 74 1015.2
20260903121552 57 331 0.9 4.3 0.00 0.00 0.00 74 1015.3
20260903121031 57 331 0.0 5.2 0.00 0.00 0.00 74 1015.4
20260903120533 57 0 0.9 5.2 0.00 0.00 0.00 75 1015.4
20260903120051 58 325 0.0 4.3 0.00 0.00 0.00 75 1015.4
20260903115535 58 0 0.9 5.2 0.00 0.00 0.00 74 1015.4
20260903115031 58 0 0.9 5.2 0.00 0.00 0.00 74 1015.5
20260903114549 58 0 0.9 5.2 0.00 0.00 0.00 74 1015.5
20260903114033 58 317 0.9 8.7 0.00 0.00 0.00 74 1015.6
20260903113531 58 352 1.7 8.7 0.00 0.00 0.00 74 1015.6
20260903113053 58 277 0.9 7.0 0.00 0.00 0.00 73 1015.6
20260903112531 58 341 0.0 7.0 0.00 0.00 0.00 73 1015.5
20260903112031 58 0 0.9 4.3 0.00 0.00 0.00 73 1015.5
20260903111558 58 352 0.0 4.3 0.00 0.00 0.00 73 1015.6
20260903111032 58 339 0.9 4.3 0.00 0.00 0.00 73 1015.6
20260903110528 58 360 0.0 4.3 0.00 0.00 0.00 73 1015.6
20260903110046 58 325 0.9 4.3 0.00 0.00 0.00 73 1015.7
20260903105535 58 331 0.9 4.3 0.00 0.00 0.00 72 1015.8
20260903105033 58 265 0.0 3.5 0.00 0.00 0.00 73 1015.8
20260903104612 58 0 0.0 2.6 0.00 0.00 0.00 73 1015.8
20260903104030 58 0 0.0 1.7 0.00 0.00 0.00 73 1015.8
20260903103531 58 246 0.0 1.7 0.00 0.00 0.00 73 1015.7
20260903103100 58 213 0.0 1.7 0.00 0.00 0.00 73 1015.7
20260903102531 58 0 0.0 1.7 0.00 0.00 0.00 73 1015.7
20260903102031 58 0 0.0 1.7 0.00 0.00 0.00 73 1015.7
20260903101552 58 0 0.0 1.7 0.00 0.00 0.00 73 1015.7
20260903101028 58 0 0.0 1.7 0.00 0.00 0.00 73 1015.8
20260903100529 58 0 0.0 1.7 0.00 0.00 0.00 73 1015.8
20260903100048 58 0 0.0 1.7 0.00 0.00 0.00 73 1015.9
20260903095527 59 280 0.0 1.7 0.00 0.00 0.00 73 1015.9
20260903095028 59 0 0.0 1.7 0.00 0.00 0.00 73 1016.0
20260903094551 59 262 0.0 2.6 0.00 0.00 0.00 73 1016.0
20260903094035 59 0 0.0 2.6 0.00 0.00 0.00 73 1016.1
20260903093528 59 0 0.0 3.5 0.00 0.00 0.00 73 1016.0
20260903093102 59 291 0.0 3.5 0.00 0.00 0.00 73 1016.1
20260903092530 59 342 0.0 3.5 0.00 0.00 0.00 73 1016.1
20260903092035 59 0 0.0 3.5 0.00 0.00 0.00 73 1016.2
20260903091552 59 279 0.0 3.5 0.00 0.00 0.00 73 1016.2
20260903091032 59 333 0.9 4.3 0.00 0.00 0.00 73 1016.2
20260903090530 59 0 0.0 4.3 0.00 0.00 0.00 73 1016.2
20260903090046 59 0 0.0 2.6 0.00 0.00 0.00 73 1016.2
20260903085529 59 0 0.0 2.6 0.00 0.00 0.00 73 1016.2
20260903085028 59 294 0.0 2.6 0.00 0.00 0.00 73 1016.2
20260903084546 59 0 0.0 1.7 0.00 0.00 0.00 73 1016.2
20260903084031 59 0 0.0 1.7 0.00 0.00 0.00 73 1016.2